Date String (YYYY-MM-DD hh:mm:ss) UTC,Instrument flags,absolute air pressure of the measurement (hPa),sample flow rate (lpm),inlet stack bypass flow (lpm),air temperature of the measurement (°C),ambient temperature measured by the external sensor (°C),aerosol sample conditioner tube jacket temperature (°C),OPC LED temperature (°C),internal box temperature (°C),relative humidity of the measurement (%),span deviation,mass concentration of particles derived from Lorenz-Mie calculation of OPC scattering (μg/m³),mass concentration of particles derived from Lorenz-Mie calculation of OPC scattering (μg/m³),mass concentration of particles derived from Lorenz-Mie calculation of OPC scattering (μg/m³)
DateTimeUTC,F1_M11,P_M11,Q1_M11,Q2_M11,T1_M11,T2_M11,T3_M11,T4_M11,T5_M11,U1_M11,ZSPAN_M11,X2_M11,X0_M11,X1_M11
2024-04-25 00:00:00,SystemResetWarning,0824.7,5.00,000.00,024.4,022.5,000.0,033.0,025.9,025.2,0003.0,0012.42,0037.56,0010.43
2024-04-25 00:01:00,SystemResetWarning,0824.7,5.01,000.00,024.5,022.9,000.0,033.0,026.2,025.1,0002.7,0012.38,0037.89,0010.40
2024-04-25 00:02:00,SystemResetWarning,0824.7,5.00,000.00,024.6,023.3,000.0,033.0,026.4,025.2,0002.9,0012.33,0038.77,0010.37
2024-04-25 00:03:00,SystemResetWarning,0824.8,5.00,000.00,024.7,023.6,000.0,033.0,026.6,024.9,0002.4,0012.20,0037.43,0010.30
2024-04-25 00:04:00,SystemResetWarning,0824.7,5.01,000.00,024.8,023.9,000.0,033.0,026.7,024.7,0002.1,0012.06,0036.76,0010.24
2024-04-25 00:05:00,SystemResetWarning,0824.7,5.00,000.00,024.9,024.1,000.0,033.0,026.8,024.6,0002.2,0011.95,0035.96,0010.19
2024-04-25 00:06:00,SystemResetWarning,0824.8,4.99,000.00,024.9,024.4,000.0,033.1,026.9,024.8,0002.4,0011.88,0033.47,0010.16
2024-04-25 00:07:00,SystemResetWarning,0824.7,5.00,000.00,025.0,024.5,000.0,033.1,027.1,024.5,0002.4,0011.78,0031.36,0010.14
2024-04-25 00:08:00,SystemResetWarning,0824.7,4.99,000.00,025.1,024.7,000.0,033.1,027.1,024.7,0002.4,0011.70,0030.69,0010.12
2024-04-25 00:09:00,SystemResetWarning,0824.7,5.00,000.00,025.2,024.8,000.0,033.2,027.2,024.5,0002.4,0011.71,0030.35,0010.06
2024-04-25 00:10:00,SystemResetWarning,0824.8,5.01,000.00,025.3,025.0,000.0,033.2,027.3,024.3,0001.8,0011.67,0029.45,0010.02
2024-04-25 00:11:00,SystemResetWarning,0824.7,5.00,000.00,025.3,024.6,000.0,033.3,027.1,023.9,0002.2,0011.63,0028.98,0009.95
2024-04-25 00:12:00,SystemResetWarning,0824.7,4.98,000.00,025.1,022.7,000.0,033.4,025.9,023.7,0002.6,0011.55,0028.83,0009.88
2024-04-25 00:13:00,SystemResetWarning,0824.7,5.01,000.00,024.6,021.5,000.0,033.4,025.2,024.2,0002.3,0011.48,0027.57,0009.81
2024-04-25 00:14:00,SystemResetWarning,0824.7,5.01,000.00,024.5,021.7,000.0,033.3,025.2,024.6,0002.5,0011.46,0027.81,0009.78
2024-04-25 00:15:00,SystemResetWarning,0824.7,5.00,000.00,024.4,022.2,000.0,033.1,025.6,024.9,0002.6,0011.43,0026.86,0009.73
2024-04-25 00:16:00,SystemResetWarning,0824.7,5.00,000.00,024.5,022.6,000.0,033.1,025.9,025.3,0002.3,0011.37,0024.64,0009.64
2024-04-25 00:17:00,SystemResetWarning,0824.7,4.99,000.00,024.5,022.9,000.0,033.0,026.2,024.8,0002.0,0011.35,0024.49,0009.59
2024-04-25 00:18:00,SystemResetWarning,0824.7,4.99,000.00,024.6,023.3,000.0,033.0,026.4,025.1,0002.1,0011.36,0025.47,0009.55
2024-04-25 00:19:00,SystemResetWarning,0824.7,5.00,000.00,024.7,023.6,000.0,033.0,026.6,024.1,0002.2,0011.33,0024.89,0009.48
2024-04-25 00:20:00,SystemResetWarning,0824.8,5.00,000.00,024.8,023.9,000.0,033.0,026.7,023.7,0002.1,0011.26,0025.03,0009.45
2024-04-25 00:21:00,SystemResetWarning,0824.7,5.01,000.00,024.9,024.2,000.0,033.1,026.8,023.3,0002.4,0011.21,0025.53,0009.47
2024-04-25 00:22:00,SystemResetWarning,0824.7,5.00,000.00,025.0,024.4,000.0,033.1,027.0,023.1,0002.3,0011.30,0025.85,0009.57
2024-04-25 00:23:00,SystemResetWarning,0824.7,5.01,000.00,025.1,024.5,000.0,033.1,027.1,023.2,0002.5,0011.37,0026.81,0009.66
2024-04-25 00:24:00,SystemResetWarning,0824.7,5.00,000.00,025.1,024.7,000.0,033.2,027.2,023.1,0002.9,0011.44,0027.94,0009.72
2024-04-25 00:25:00,SystemResetWarning,0824.7,5.00,000.00,025.2,024.8,000.0,033.2,027.3,023.1,0003.2,0011.48,0028.09,0009.76
2024-04-25 00:26:00,SystemResetWarning,0824.7,5.00,000.00,025.3,025.0,000.0,033.3,027.3,022.9,0003.5,0011.57,0029.86,0009.81
2024-04-25 00:27:00,SystemResetWarning,0824.7,4.99,000.00,025.4,024.7,000.0,033.3,027.1,023.2,0003.7,0011.68,0031.72,0009.88
2024-04-25 00:28:00,SystemResetWarning,0824.5,5.00,000.00,025.1,022.7,000.0,033.4,026.0,023.8,0004.1,0011.73,0031.84,0009.93
2024-04-25 00:29:00,SystemResetWarning,0824.4,5.01,000.00,024.6,021.4,000.0,033.4,025.2,024.8,0003.9,0011.69,0030.59,0009.91
2024-04-25 00:30:00,SystemResetWarning,0824.4,5.01,000.00,024.4,021.7,000.0,033.3,025.2,025.4,0004.0,0011.76,0030.62,0009.94
2024-04-25 00:31:00,SystemResetWarning,0824.4,5.00,000.00,024.4,022.1,000.0,033.2,025.5,025.7,0003.8,0011.75,0031.52,0009.90
2024-04-25 00:32:00,SystemResetWarning,0824.5,5.00,000.00,024.4,022.5,000.0,033.1,025.9,025.5,0003.8,0011.71,0031.86,0009.82
2024-04-25 00:33:00,SystemResetWarning,0824.5,5.00,000.00,024.5,022.9,000.0,033.0,026.2,025.6,0003.9,0011.55,0032.40,0009.64
2024-04-25 00:34:00,SystemResetWarning,0824.6,5.00,000.00,024.6,023.2,000.0,033.0,026.4,025.6,0004.0,0011.37,0033.03,0009.44
2024-04-25 00:35:00,SystemResetWarning,0824.5,5.00,000.00,024.6,023.5,000.0,033.0,026.5,025.4,0004.1,0011.15,0031.69,0009.24
2024-04-25 00:36:00,SystemResetWarning,0824.5,5.00,000.00,024.7,023.8,000.0,033.0,026.7,025.0,0004.2,0010.95,0030.37,0009.07
2024-04-25 00:37:00,SystemResetWarning,0824.5,5.00,000.00,024.8,024.1,000.0,033.0,026.8,024.9,0003.8,0010.80,0030.45,0008.93
2024-04-25 00:38:00,SystemResetWarning,0824.5,5.00,000.00,024.9,024.3,000.0,033.1,026.9,024.9,0003.9,0010.64,0029.35,0008.78
2024-04-25 00:39:00,SystemResetWarning,0824.5,4.99,000.00,025.0,024.5,000.0,033.1,027.0,024.7,0003.1,0010.48,0028.53,0008.67
2024-04-25 00:40:00,SystemResetWarning,0824.5,5.00,000.00,025.1,024.7,000.0,033.1,027.1,024.6,0003.0,0010.35,0028.69,0008.58
2024-04-25 00:41:00,SystemResetWarning,0824.5,4.99,000.00,025.2,024.8,000.0,033.2,027.2,024.8,0002.6,0010.20,0028.14,0008.48
2024-04-25 00:42:00,SystemResetWarning,0824.6,5.00,000.00,025.3,024.9,000.0,033.2,027.3,025.1,0003.0,0010.07,0027.33,0008.40
2024-04-25 00:43:00,SystemResetWarning,0824.5,5.00,000.00,025.4,025.0,000.0,033.3,027.4,024.9,0002.8,0009.93,0028.85,0008.31
2024-04-25 00:44:00,SystemResetWarning,0824.5,4.99,000.00,025.4,024.8,000.0,033.4,027.2,024.9,0003.0,0009.83,0027.65,0008.23
2024-04-25 00:45:00,SystemResetWarning,0824.4,5.01,000.00,025.1,022.8,000.0,033.4,026.1,024.8,0003.3,0009.67,0025.35,0008.11
2024-04-25 00:46:00,SystemResetWarning,0824.4,4.99,000.00,024.7,021.5,000.0,033.4,025.2,025.3,0002.8,0009.49,0025.01,0007.94
2024-04-25 00:47:00,SystemResetWarning,0824.4,5.01,000.00,024.5,021.6,000.0,033.4,025.2,025.8,0002.6,0009.27,0025.69,0007.73
2024-04-25 00:48:00,SystemResetWarning,0824.4,5.01,000.00,024.4,022.0,000.0,033.2,025.5,025.2,0003.2,0009.04,0024.21,0007.52
2024-04-25 00:49:00,SystemResetWarning,0824.4,4.99,000.00,024.4,022.5,000.0,033.1,025.9,024.8,0003.5,0008.71,0023.52,0007.25
2024-04-25 00:50:00,SystemResetWarning,0824.4,5.01,000.00,024.5,022.9,000.0,033.1,026.2,024.9,0003.5,0008.40,0022.96,0006.97
2024-04-25 00:51:00,SystemResetWarning,0824.4,5.00,000.00,024.6,023.2,000.0,033.0,026.4,024.8,0004.0,0008.12,0022.41,0006.69
2024-04-25 00:52:00,SystemResetWarning,0824.4,5.00,000.00,024.7,023.5,000.0,033.0,026.5,025.0,0004.4,0007.90,0023.07,0006.44
2024-04-25 00:53:00,SystemResetWarning,0824.3,4.99,000.00,024.7,023.8,000.0,033.0,026.7,024.4,0004.0,0007.63,0022.88,0006.18
2024-04-25 00:54:00,SystemResetWarning,0824.4,4.99,000.00,024.9,024.1,000.0,033.1,026.8,024.7,0003.9,0007.34,0020.41,0005.94
2024-04-25 00:55:00,SystemResetWarning,0824.4,5.00,000.00,024.9,024.3,000.0,033.1,026.9,024.7,0003.9,0007.07,0019.94,0005.70
2024-04-25 00:56:00,SystemResetWarning,0824.4,5.00,000.00,025.0,024.5,000.0,033.1,027.0,024.0,0003.7,0006.85,0020.57,0005.52
2024-04-25 00:57:00,SystemResetWarning,0824.4,5.00,000.00,025.1,024.7,000.0,033.2,027.1,023.9,0002.7,0006.72,0020.64,0005.42
2024-04-25 00:58:00,SystemResetWarning,0824.4,5.01,000.00,025.2,024.8,000.0,033.2,027.2,023.5,0000.0,0006.61,0019.89,0005.35
2024-04-25 00:59:00,SystemResetWarning,0824.4,5.00,000.00,025.3,024.9,000.0,033.3,027.3,023.6,0003.6,0006.51,0020.36,0005.29
